2024-149DH (60571 NORAD) Tracking and Keplerian Element Data

This shows tracking and keplerian element data for the satellite.

Feedback or suggestion? Click here.




ElementValue
Catalog60571
Name2024-149DH
Epoch Orbit849
Epoch Day286.7641096
Epoch Year2024
RAAN1.4528
Inclination97.7439
Eccentricity0.0001418
Argument of Perigee262.7688
Mean Anonmoly97.3372
Mean Motion14.96693984
Decay Rate0.00046837
L11 60571U 24149DH 24286.76410960 .00046837 00000+0 40822-2 0 9999
L22 60571 97.7439 1.4528 0001418 262.7688 97.3372 14.96693984 8494



Live tracking and technical data element details for 2024-149DH (NORAD 60571). 2024-149DH can be tracked NOW for your location showing map with azimuth and elevation plus other details from your city location.







IsCatalogInMostPopularTable: catalog: 60571, numindb: 4
Update: records affected: 1



GetName: 60571 2024-149DH

Hit Count: updated at: Tue, 03 Dec 2024 03:23:37 GMT